Location: Spring Creek
(38.2870°N, 100.2160°W)
Time: 08:34:40
(UTC+00:00)

Cosmos 1605 Rocket - Pass Details

Date: 08 May 2021
Orbit: 946 x 1005 km, 82.9° (Epoch: 21 June)

Event Time Altitude Azimuth Distance (km) Brightness Sun altitude
Rises 07:41:56 0° 355° (N) 3,663 7.9 -32.5°
Reaches altitude 10° 07:44:27 10° 358° (N) 2,721 7.1 -32.3°
Enters shadow 07:50:21 70° 59° (ENE) 1,041 4.1 -31.9°
